COSMOS 2251 DEB, 47045

Orbit data source: Space-Track

COSMOS 2251 DEB, 47045 is space debris in LEO originally from a launch on Wed, 16 Jun 1993 UTC launched from the Plesetsk Missile And Space Complex (PKMTR). The debris from Iridium 33, an American commercial communications satellite, has been tracked extensively since its accidental collision with the defunct Russian satellite Cosmos 2251 in 2009. This event, occurring at high speed in low Earth orbit (LEO), generated thousands of pieces of space debris, significantly increasing the risk of further collisions. The Iridium 33 debris cloud has impacted space traffic management and orbital debris mitigation strategies, making it a subject of ongoing study in space situational awareness.

Loading next visibility...
COSMOS 2251 DEB details
Identifier
47045, 1993-036BWZ
Orbit
LEO
Last TLE update2 days ago
Origin
Flag of CISKVR (CIS)
ManufacturerUnknown
MissionSpacecraft
Bus & MotorUnknown
MassUnknown
Launch date (UTC)
1993-06-16 (32 years ago)
Launch vehicleUnknown
Launch site
Plesetsk Missile And Space Complex (PKMTR)
Object type
Payload
Rocket body
Debris
Shape & HBRUnknown
Radar Cross SectionSmall (<0.1 m²)

Expand to show TLE details & history

TLE from 2 days ago
0 COSMOS 2251 DEB
1 47045U 93036BWZ 24359.49915547  .00000559  00000-0  19024-3 0  9996
2 47045  74.0596  79.6666 0030520 308.6788  62.7852 14.38608220582158
Epoch: 2024-12-24T11:58Z
Definitive object data (Epoch: 2024-12-24T11:58:47.032Z)
Latitude11.27546°
Longitude169.71129°
Altitude755.041 km
Speed7.483 km/s
True Right ascension05h 31m 39s
True Declination11° 12' 35"
Sunlit
Object was in full shadow at TLE epoch
Visualization TLE readout
Latitude59.3098°
Longitude-168.79474°
Altitude783.315 km
Speed7.463 km/s
Apparent Right ascension03h 50m 53s
Apparent Declination17° 18' 42"
Sunlit
Object is in full shadow
Visualization observer readout
Local Sidereal Time13:39:02
Azimuth325.014° NNW
Elevation-25.051°
Doppler factor1
Orbital elements
Apogee altitude782.507 km
Perigee altitude738.932 km
Semi-major axis7,138.857 km
Eccentricity0.003052
Inclination74.0596°
RAAN79.6666°
Arg. of periapsis308.6788°
True anomaly63.09676°
Mean anomaly62.7852°
Eccentric anomaly62.94093°
Mean motion3.59832 °/min
BSTAR0.00019024
Orbital period100.05 mins
Loading maneuver chart data...

COSMOS 2251 DEB Visibility forecast

Observer location: undefined°, undefined

Span
Click to sort rows by Start time (UTC) header in descending order
Start Az.
Max El. time (UTC)
Max El. Az.
Max El.
End time (UTC)
End Az.
9 mins2024-12-26 16:13:13.760Z353.109° N2024-12-26 16:18:13.760Z85.388° E37.411°2024-12-26 16:22:13.760Z141.168° SSE
5 mins2024-12-26 17:57:13.760Z291.488° WNW2024-12-26 17:59:13.760Z264.444° W17.689°2024-12-26 18:02:13.760Z226.494° WSW
4 mins2024-12-27 05:10:13.760Z114.853° SE2024-12-27 05:11:13.760Z101.391° ESE16.043°2024-12-27 05:14:13.760Z62.938° ENE
8 mins2024-12-27 06:49:13.760Z218.791° SW2024-12-27 06:53:13.760Z299.535° NW39.031°2024-12-27 06:57:13.760Z6.783° NNE
|